Volver al catálogo

THORAD AGENA D DEB

ActivoPO
NORAD 4842·DEBRIS·🇺🇸 United States

Lanzado Apr 8, 1970 desde Vandenberg Space Force Base

Loading…

Próximos Pases (próximas 24 horas)

TLE

ActualizadoSource: Space-Track

Época: Sep 14, 2026, 00:49 UTC

1 04842U 70025EE  26257.03447178  .00001477  00000-0  85484-3 0  9999
2 04842  99.9478 272.0905 0015293  24.4756 335.7134 14.10733785835437

Sigue THORAD AGENA D DEB en tiempo real con AllMySat

Download on the App Store